W3JGB Weather Reports


time (UTC)temp
F
wind
direction
speed
knots
gust
knots
rain 1hr
in
rain 24hr
in
rain mn
in
humidity
%
barometer
mb
20260506033802 54 4 0.0 0.0 0.00 0.00 0.00 96 1007.7
20260506033259 54 5 0.0 0.0 0.00 0.00 0.00 96 1007.9
20260506032756 54 4 0.0 0.0 0.00 0.00 0.00 96 1007.7
20260506032253 54 5 0.0 0.0 0.00 0.00 0.00 96 1007.7
20260506031749 55 1 0.0 0.0 0.00 0.00 0.00 96 1007.9
20260506031247 55 1 0.0 0.0 0.00 0.00 0.00 96 1008.1
20260506030745 55 1 0.0 0.0 0.00 0.00 0.00 96 1008.0
20260506030242 55 1 0.0 0.0 0.00 0.00 0.00 96 1007.9
20260506025739 55 1 0.0 0.0 0.00 0.00 0.00 95 1007.9
20260506025235 55 1 0.0 0.0 0.00 0.00 0.00 95 1007.7
20260506024732 55 1 0.0 0.0 0.00 0.00 0.00 95 1008.0
20260506024229 55 0 0.0 0.0 0.00 0.00 0.00 95 1008.0
20260506023725 55 1 0.0 0.0 0.00 0.00 0.00 95 1008.1
20260506023223 55 1 0.0 0.0 0.00 0.00 0.00 94 1007.9
20260506022719 55 1 0.0 0.0 0.00 0.00 0.00 94 1008.1
20260506022217 56 1 0.0 0.0 0.00 0.00 0.00 93 1008.1
20260506021715 56 1 0.0 0.0 0.00 0.00 0.00 93 1008.0
20260506021211 56 1 0.0 0.0 0.00 0.00 0.00 92 1007.8
20260506020708 57 1 0.0 0.0 0.00 0.00 0.00 92 1008.1
20260506020206 57 0 0.0 0.0 0.00 0.00 0.00 92 1007.9
20260506015703 57 1 0.0 0.0 0.00 0.00 0.00 92 1008.1
20260506015201 57 0 0.0 0.0 0.00 0.00 0.00 91 1008.0
20260506014658 57 1 0.0 0.0 0.00 0.00 0.00 91 1007.9
20260506014153 58 0 0.0 0.0 0.00 0.00 0.00 91 1008.1
20260506013652 58 2 0.0 0.0 0.00 0.00 0.00 90 1007.7
20260506013149 59 1 0.0 0.0 0.00 0.00 0.00 90 1007.9
20260506012645 59 2 0.0 0.0 0.00 0.00 0.00 89 1008.0
20260506012142 59 1 0.0 0.0 0.00 0.00 0.00 89 1007.9
20260506011639 59 2 0.0 0.0 0.00 0.00 0.00 89 1007.6
20260506011135 60 2 0.0 0.0 0.00 0.00 0.00 89 1007.7
20260506010634 60 358 0.0 0.0 0.00 0.00 0.00 88 1007.7
20260506010131 60 4 0.0 0.0 0.00 0.00 0.00 88 1007.7
20260506005628 61 1 0.0 0.0 0.00 0.00 0.00 86 1007.5
20260506005124 61 1 0.0 0.0 0.00 0.00 0.00 86 1007.6
20260506004621 62 1 0.0 0.0 0.00 0.00 0.00 85 1007.6
20260506004118 62 5 0.0 0.0 0.00 0.00 0.00 84 1007.6
20260506003614 62 6 0.0 0.0 0.00 0.00 0.00 83 1007.4
20260506003110 63 5 0.0 0.0 0.00 0.00 0.00 81 1007.2
20260506002606 63 5 0.0 0.0 0.00 0.00 0.00 81 1007.5
20260506002102 64 6 0.0 0.0 0.00 0.00 0.00 81 1007.2
20260506001559 64 7 0.0 0.0 0.00 0.00 0.00 81 1007.2
20260506001056 65 3 0.0 0.0 0.00 0.00 0.00 81 1006.9
20260506000553 65 1 0.0 0.0 0.00 0.00 0.00 79 1007.1
20260506000051 65 1 0.0 0.0 0.00 0.00 0.00 79 1007.1
20260505235549 66 4 0.0 0.0 0.00 0.00 0.00 77 1007.1
20260505235045 66 1 0.0 0.0 0.00 0.00 0.00 75 1007.0
20260505234542 67 0 0.0 0.0 0.00 0.00 0.00 75 1006.9
20260505234039 67 359 0.0 0.0 0.00 0.00 0.00 75 1007.0
20260505233537 68 3 0.0 0.0 0.00 0.00 0.00 73 1006.9
20260505233034 68 1 0.0 0.0 0.00 0.00 0.00 73 1006.9
20260505232532 68 11 0.0 0.0 0.00 0.00 0.00 72 1006.8
20260505232029 69 0 0.0 0.0 0.00 0.00 0.00 71 1006.6
20260505231526 69 351 0.0 0.0 0.00 0.00 0.00 70 1006.7
20260505231025 69 357 0.9 0.9 0.00 0.00 0.00 70 1006.8
20260505230521 69 359 0.0 0.0 0.00 0.00 0.00 70 1006.7
20260505230018 69 359 0.9 1.7 0.00 0.00 0.00 67 1006.7
20260505225515 70 28 1.7 1.7 0.00 0.00 0.00 66 1006.7
20260505225011 70 5 0.9 0.9 0.00 0.00 0.00 66 1006.7
20260505224508 71 355 0.0 0.0 0.00 0.00 0.00 65 1006.4
20260505224005 71 356 0.0 0.0 0.00 0.00 0.00 62 1006.5
20260505223502 72 311 1.7 1.7 0.00 0.00 0.00 61 1006.7
20260505222958 73 81 1.7 1.7 0.00 0.00 0.00 58 1006.6
20260505222455 73 30 1.7 1.7 0.00 0.00 0.00 53 1006.5
20260505221950 73 7 0.0 0.0 0.00 0.00 0.00 54 1006.3
20260505221448 73 310 4.3 5.2 0.00 0.00 0.00 54 1006.7
20260505220945 73 35 0.9 1.7 0.00 0.00 0.00 55 1006.8
20260505220442 73 331 0.9 1.7 0.00 0.00 0.00 53 1006.6
20260505215939 73 20 0.0 0.0 0.00 0.00 0.00 52 1006.4
20260505215437 73 338 1.7 2.6 0.00 0.00 0.00 53 1006.4
20260505214935 73 357 0.9 0.9 0.00 0.00 0.00 54 1006.5
20260505214433 72 358 0.9 0.9 0.00 0.00 0.00 55 1006.5
20260505213929 73 290 1.7 2.6 0.00 0.00 0.00 55 1006.2
20260505213427 75 219 4.3 6.1 0.00 0.00 0.00 49 1006.6
20260505212923 77 325 1.7 1.7 0.00 0.00 0.00 42 1006.3
20260505212420 77 336 1.7 1.7 0.00 0.00 0.00 41 1006.1
20260505171759 81 47 1.7 1.7 0.00 0.00 0.00 42 1007.0
20260505171256 81 47 1.7 1.7 0.00 0.00 0.00 42 1007.0
20260505170752 80 330 0.0 0.0 0.00 0.00 0.00 43 1007.3
20260505170249 80 0 0.9 0.9 0.00 0.00 0.00 43 1006.7
20260505165744 80 260 1.7 1.7 0.00 0.00 0.00 43 1007.1
20260505165241 78 4 0.9 1.7 0.00 0.00 0.00 44 1007.2
20260505164736 78 219 2.6 2.6 0.00 0.00 0.00 44 1007.3
20260505164234 78 273 3.5 5.2 0.00 0.00 0.00 43 1007.3
20260505163732 78 343 1.7 1.7 0.00 0.00 0.00 45 1007.1
20260505163230 79 206 3.5 4.3 0.00 0.00 0.00 43 1007.4
20260505162727 79 187 4.3 6.1 0.00 0.00 0.00 43 1007.3
20260505162224 79 350 0.9 1.7 0.00 0.00 0.00 46 1007.5
20260505161721 79 305 2.6 2.6 0.00 0.00 0.00 46 1007.4
20260505161219 78 110 6.1 8.7 0.00 0.00 0.00 45 1007.7
20260505160716 78 72 2.6 2.6 0.00 0.00 0.00 46 1007.8
20260505160213 78 262 7.0 9.6 0.00 0.00 0.00 46 1007.8
20260505153152 77 137 4.3 7.0 0.00 0.00 0.00 48 1008.0
20260505152649 77 274 2.6 4.3 0.00 0.00 0.00 48 1008.0
20260505152145 77 281 1.7 1.7 0.00 0.00 0.00 49 1007.9
20260505151640 77 229 2.6 4.3 0.00 0.00 0.00 48 1008.0
20260505151138 77 229 1.7 2.6 0.00 0.00 0.00 50 1008.0
20260505150634 77 7 0.9 1.7 0.00 0.00 0.00 51 1008.2
20260505150131 77 239 2.6 4.3 0.00 0.00 0.00 49 1008.2
20260505140600 73 36 1.7 1.7 0.00 0.00 0.00 51 1008.2
20260505125013 69 30 0.9 1.7 0.00 0.00 0.00 66 1008.8
20260505124510 68 13 0.0 0.0 0.00 0.00 0.00 69 1008.7
20260505124006 67 10 0.0 0.0 0.00 0.00 0.00 73 1008.8
20260505123503 65 5 1.7 1.7 0.00 0.00 0.00 74 1008.7
20260505122959 62 8 0.0 0.0 0.00 0.00 0.00 85 1008.7
20260505122456 60 8 0.0 0.0 0.00 0.00 0.00 88 1008.9
20260505121953 60 6 0.0 0.0 0.00 0.00 0.00 90 1008.9
20260505121449 60 23 0.0 0.0 0.00 0.00 0.00 88 1009.0
20260505120945 60 0 0.0 0.0 0.00 0.00 0.00 86 1008.7
20260505120442 60 9 0.0 0.0 0.00 0.00 0.00 83 1009.0
20260505115941 58 357 0.0 0.9 0.00 0.00 0.00 89 1008.9
20260505115438 56 24 0.9 0.9 0.00 0.00 0.00 90 1008.8
20260505114936 56 16 0.0 0.0 0.00 0.00 0.00 93 1008.9
20260505114432 56 344 0.0 0.0 0.00 0.00 0.00 94 1008.6
20260505113928 55 5 0.0 0.0 0.00 0.00 0.00 94 1008.9
20260505113425 54 7 0.0 0.0 0.00 0.00 0.00 95 1008.7
20260505112921 53 6 0.0 0.0 0.00 0.00 0.00 95 1008.7
20260505112419 53 3 0.0 0.0 0.00 0.00 0.00 95 1008.9
20260505111915 52 0 0.0 0.0 0.00 0.00 0.00 97 1008.8
20260505111409 51 351 0.0 0.0 0.00 0.00 0.00 97 1008.2
20260505110906 51 1 0.9 0.9 0.00 0.00 0.00 98 1008.6
20260505110403 50 7 0.0 0.0 0.00 0.00 0.00 98 1008.4
20260505101833 48 357 0.9 0.9 0.00 0.00 0.00 99 1008.4
20260505101328 48 8 0.0 0.0 0.00 0.00 0.00 99 1008.2
20260505100824 48 5 0.0 0.0 0.00 0.00 0.00 99 1008.5
20260505100321 48 4 0.0 0.0 0.00 0.00 0.00 99 1008.4
20260505095817 48 9 0.9 0.9 0.00 0.00 0.00 99 1008.2
20260505095315 48 354 0.0 0.0 0.00 0.00 0.00 98 1008.4
20260505094810 48 354 0.0 0.0 0.00 0.00 0.00 99 1008.1
20260505094308 48 6 0.0 0.0 0.00 0.00 0.00 99 1008.0
20260505093803 48 9 0.0 0.0 0.00 0.00 0.00 99 1008.4
20260505093301 48 1 0.0 0.9 0.00 0.00 0.00 99 1007.8
20260505092757 48 353 1.7 1.7 0.00 0.00 0.00 99 1007.6
20260505092256 48 8 0.0 0.9 0.00 0.00 0.00 99 1007.5
20260505091753 48 6 0.0 0.0 0.00 0.00 0.00 98 1007.6
20260505091251 48 10 0.0 0.0 0.00 0.00 0.00 98 1007.8
20260505090749 48 7 0.0 0.0 0.00 0.00 0.00 98 1007.6
20260505090247 48 6 0.0 0.0 0.00 0.00 0.00 98 1007.6
20260505085744 48 9 0.0 0.0 0.00 0.00 0.00 98 1007.6
20260505085242 48 7 0.0 0.0 0.00 0.00 0.00 98 1007.6
20260505084739 48 5 0.0 0.0 0.00 0.00 0.00 98 1007.6
20260505084238 48 9 0.0 0.0 0.00 0.00 0.00 99 1007.5
20260505083734 48 10 1.7 1.7 0.00 0.00 0.00 98 1007.6
20260505083231 48 9 0.0 0.0 0.00 0.00 0.00 98 1007.9
20260505082727 48 10 0.0 0.0 0.00 0.00 0.00 98 1007.9
20260505082225 48 6 0.0 0.0 0.00 0.00 0.00 98 1007.7
20260505081720 48 7 0.0 0.0 0.00 0.00 0.00 98 1007.8
20260505081218 48 1 0.0 0.0 0.00 0.00 0.00 98 1007.5
20260505080715 48 5 0.0 0.0 0.00 0.00 0.00 98 1007.6
20260505080210 48 4 0.0 0.0 0.00 0.00 0.00 98 1007.7
20260505075706 48 5 0.0 0.0 0.00 0.00 0.00 97 1007.6
20260505075203 48 9 0.0 0.0 0.00 0.00 0.00 97 1007.6
20260505074700 48 5 0.0 0.0 0.00 0.00 0.00 97 1007.4
20260505074157 49 7 0.0 0.0 0.00 0.00 0.00 97 1007.2
20260505073655 49 352 0.0 0.0 0.00 0.00 0.00 97 1007.3
20260505073153 49 9 0.0 0.0 0.00 0.00 0.00 97 1007.5
20260505072648 48 5 0.0 0.0 0.00 0.00 0.00 97 1007.4
20260505072145 49 6 0.0 0.0 0.00 0.00 0.00 96 1007.3
20260505071641 49 10 0.0 0.0 0.00 0.00 0.00 96 1007.5
20260505071139 49 6 0.0 0.0 0.00 0.00 0.00 96 1007.2
20260505070636 49 5 0.0 0.0 0.00 0.00 0.00 96 1007.5
20260505070132 49 6 0.0 0.0 0.00 0.00 0.00 95 1007.3
20260505065628 49 358 0.0 0.0 0.00 0.00 0.00 95 1007.3
20260505065125 50 9 0.0 0.0 0.00 0.00 0.00 94 1007.4
20260505064621 50 6 0.0 0.0 0.00 0.00 0.00 95 1007.4
20260505064120 50 9 0.0 0.0 0.00 0.00 0.00 95 1007.5
20260505063617 50 6 0.0 0.0 0.00 0.00 0.00 95 1007.4
20260505063113 50 8 0.0 0.0 0.00 0.00 0.00 94 1007.5
20260505062609 50 8 0.0 0.0 0.00 0.00 0.00 94 1007.4
20260505062107 50 7 0.0 0.0 0.00 0.00 0.00 93 1007.4
20260505061604 50 8 0.0 0.0 0.00 0.00 0.00 93 1007.5
20260505061102 50 6 0.0 0.0 0.00 0.00 0.00 93 1007.5
20260505060559 51 8 0.0 0.0 0.00 0.00 0.00 93 1007.6
20260505060056 50 9 0.0 0.0 0.00 0.00 0.00 93 1007.6
20260505055551 50 7 0.0 0.0 0.00 0.00 0.00 92 1007.8
20260505055048 50 6 0.0 0.0 0.00 0.00 0.00 92 1007.9
20260505054545 51 14 0.0 0.0 0.00 0.00 0.00 92 1007.8
20260505054043 51 9 0.0 0.0 0.00 0.00 0.00 92 1007.5
20260505053540 51 9 0.0 0.0 0.00 0.00 0.00 92 1007.7
20260505053037 51 9 0.0 0.0 0.00 0.00 0.00 91 1007.7
20260505052534 51 8 0.0 0.0 0.00 0.00 0.00 91 1008.0
20260505052031 51 8 0.0 0.0 0.00 0.00 0.00 92 1007.8
20260505051528 51 8 0.0 0.0 0.00 0.00 0.00 92 1008.0
20260505051026 51 10 0.0 0.0 0.00 0.00 0.00 93 1008.0
20260505050524 51 8 0.0 0.0 0.00 0.00 0.00 92 1007.9
20260505041452 51 1 0.0 0.0 0.00 0.00 0.00 90 1007.8
20260505040949 51 4 0.0 0.0 0.00 0.00 0.00 89 1007.8
20260505040446 52 4 0.0 0.0 0.00 0.00 0.00 88 1007.5
20260505035943 52 4 0.0 0.0 0.00 0.00 0.00 88 1007.7
20260505035439 52 3 0.0 0.0 0.00 0.00 0.00 88 1007.6
20260505034936 52 7 0.0 0.0 0.00 0.00 0.00 87 1007.4
20260505034433 52 0 0.0 0.0 0.00 0.00 0.00 88 1007.6